EW7824 Weather Reports


Display with metric or nautical units.
time (UTC)temp
F
wind
direction
speed
MPH
gust
MPH
rain 1hr
in
rain 24hr
in
rain mn
in
humidity
%
barometer
mb
20260505053903 67 53 10.0 13.0 0.06 0.06 0.06 83 1000.6
20260505051904 68 48 1.0 5.0 0.06 0.06 0.06 78 1000.1
20260505051403 69 111 3.0 7.0 0.06 0.06 0.06 75 1000.2
20260505050403 70 155 1.0 6.0 0.02 0.02 0.02 72 1000.5
20260505041404 72 103 0.0 2.0 0.00 0.00 0.00 62 999.8
20260505040903 72 173 1.0 7.0 0.00 0.00 0.00 62 999.8
20260505040404 72 157 1.0 5.0 0.00 0.00 0.00 62 999.9
20260505034904 72 92 1.0 5.0 0.00 0.00 0.00 61 999.8
20260505034404 73 73 2.0 5.0 0.00 0.00 0.00 60 999.8
20260505033903 73 81 3.0 7.0 0.00 0.00 0.00 60 999.8
20260505033404 73 87 5.0 9.0 0.00 0.00 0.00 60 999.9
20260505031904 73 98 2.0 5.0 0.00 0.00 0.00 58 1000.3
20260505030904 74 93 3.0 10.0 0.00 0.00 0.00 57 999.9
20260505024903 74 123 5.0 9.0 0.00 0.00 0.00 56 1000.2
20260505024403 74 150 3.0 7.0 0.00 0.00 0.00 56 1000.1
20260505023904 74 107 2.0 6.0 0.00 0.00 0.00 55 1000.0
20260505023404 74 124 3.0 10.0 0.00 0.00 0.00 55 999.9
20260505021904 74 149 2.0 7.0 0.00 0.00 0.00 53 1000.0
20260505021403 75 120 5.0 13.0 0.00 0.00 0.00 52 1000.0
20260505020903 75 122 5.0 13.0 0.00 0.00 0.00 52 1000.1
20260505020404 75 198 5.0 13.0 0.00 0.00 0.00 51 1000.3
20260505014905 75 162 5.0 10.0 0.00 0.00 0.00 50 1000.0
20260505014404 76 144 3.0 7.0 0.00 0.00 0.00 49 999.6
20260505013905 76 154 3.0 9.0 0.00 0.00 0.00 49 999.8
20260505013404 76 129 5.0 15.0 0.00 0.00 0.00 48 999.5
20260505011904 76 138 5.0 9.0 0.00 0.00 0.00 46 999.1
20260505010903 77 118 3.0 10.0 0.00 0.00 0.00 46 998.9
20260505010405 77 152 5.0 16.0 0.00 0.00 0.00 45 998.9
20260505004404 78 141 2.0 9.0 0.00 0.00 0.00 43 999.0
20260505003904 78 133 4.0 13.0 0.00 0.00 0.00 43 999.0
20260505003404 78 138 5.0 14.0 0.00 0.00 0.00 42 999.0
20260505001404 79 131 4.0 9.0 0.00 0.00 0.00 40 999.2
20260505000904 79 148 5.0 9.0 0.00 0.00 0.00 39 999.3
20260505000405 79 168 6.0 15.0 0.00 0.00 0.00 39 999.3
20260504234904 80 135 9.0 14.0 0.00 0.00 0.00 39 999.4
20260504233904 80 189 2.0 13.0 0.00 0.00 0.00 39 999.4
20260504231904 81 175 6.0 17.0 0.00 0.00 0.00 38 999.3
20260504231405 81 127 6.0 14.0 0.00 0.00 0.00 38 999.3
20260504230904 81 155 5.0 22.0 0.00 0.00 0.00 38 999.2
20260504230404 82 161 7.0 22.0 0.00 0.00 0.00 37 999.1
20260504224405 82 150 9.0 17.0 0.00 0.00 0.00 36 999.1
20260504223904 82 128 8.0 14.0 0.00 0.00 0.00 36 999.1
20260504221903 83 166 7.0 14.0 0.00 0.00 0.00 34 999.1
20260504221402 84 181 9.0 18.0 0.00 0.00 0.00 34 999.2
20260504220902 84 167 7.0 10.0 0.00 0.00 0.00 34 999.1
20260504220403 84 164 7.0 17.0 0.00 0.00 0.00 33 999.2
20260504214904 85 185 8.0 17.0 0.00 0.00 0.00 32 999.3
20260504214403 85 153 9.0 22.0 0.00 0.00 0.00 32 999.4
20260504213903 86 131 7.0 13.0 0.00 0.00 0.00 32 999.3
20260504213403 86 229 8.0 26.0 0.00 0.00 0.00 31 999.4
20260504211905 88 226 10.0 17.0 0.00 0.00 0.00 27 999.4
20260504211402 88 171 10.0 14.0 0.00 0.00 0.00 27 999.5
20260504210903 88 141 7.0 14.0 0.00 0.00 0.00 27 999.5
20260504210403 88 93 4.0 15.0 0.00 0.00 0.00 28 999.6
20260504204404 88 240 5.0 9.0 0.00 0.00 0.00 27 999.9
20260504203902 87 260 7.0 15.0 0.00 0.00 0.00 26 999.9
20260504201902 87 263 10.0 14.0 0.00 0.00 0.00 27 1000.3
20260504201403 87 212 7.0 14.0 0.00 0.00 0.00 27 1000.4
20260504200902 87 139 5.0 10.0 0.00 0.00 0.00 26 1000.5
20260504200403 87 248 7.0 14.0 0.00 0.00 0.00 28 1000.6
20260504194902 85 257 5.0 10.0 0.00 0.00 0.00 30 1000.8
20260504194403 86 228 6.0 9.0 0.00 0.00 0.00 28 1000.9
20260504193902 86 143 2.0 8.0 0.00 0.00 0.00 29 1001.0
20260504191903 85 181 3.0 9.0 0.00 0.00 0.00 30 1001.4
20260504190903 82 19 3.0 7.0 0.00 0.00 0.00 32 1001.6
20260504184903 82 181 4.0 9.0 0.00 0.00 0.00 34 1001.7
20260504184402 82 158 4.0 13.0 0.00 0.00 0.00 32 1001.9
20260504183902 82 250 5.0 13.0 0.00 0.00 0.00 32 1002.0
20260504183403 81 161 3.0 10.0 0.00 0.00 0.00 32 1001.9
20260504181903 83 191 7.0 10.0 0.00 0.00 0.00 31 1002.0
20260504181402 82 245 3.0 14.0 0.00 0.00 0.00 32 1002.1
20260504180403 81 267 6.0 10.0 0.00 0.00 0.00 32 1002.1
20260504174402 82 230 7.0 10.0 0.00 0.00 0.00 33 1002.4
20260504173902 82 259 5.0 8.0 0.00 0.00 0.00 35 1002.5
20260504173403 81 242 3.0 8.0 0.00 0.00 0.00 35 1002.5
20260504171903 78 232 7.0 10.0 0.00 0.00 0.00 37 1002.6
20260504171402 78 246 7.0 10.0 0.00 0.00 0.00 38 1002.5
20260504170902 78 206 8.0 13.0 0.00 0.00 0.00 38 1002.5
20260504170403 78 216 9.0 15.0 0.00 0.00 0.00 38 1002.5
20260504160402 73 199 9.0 18.0 0.00 0.00 0.00 42 1002.2
20260504150903 72 231 5.0 14.0 0.00 0.00 0.00 44 1002.7
20260504150403 71 180 10.0 18.0 0.00 0.00 0.00 45 1002.7
20260504140403 67 191 9.0 13.0 0.00 0.00 0.00 49 1002.9
20260504130403 63 175 8.0 13.0 0.00 0.00 0.00 54 1003.2
20260504110404 62 179 9.0 15.0 0.00 0.00 0.00 51 1003.3
20260504100403 63 146 7.0 17.0 0.00 0.00 0.00 48 1003.7
20260504081904 65 167 6.0 9.0 0.00 0.00 0.00 43 1004.6
20260504081403 65 164 7.0 14.0 0.00 0.00 0.00 43 1004.6
20260504080903 65 174 10.0 16.0 0.00 0.00 0.00 43 1004.7
20260504080403 66 194 7.0 15.0 0.00 0.00 0.00 43 1004.7
20260504070403 67 226 10.0 21.0 0.00 0.00 0.00 40 1005.4